Total_Precipitation_Accumulation
2.22 2.25 1.98 1.89 1.82 1.96 2.20 2.20 2.07 2.21 2.34 2.33 2.14 2.00 1.84 1.56 1.44 1.34 1.42 1.76 1.76 1.77 2.01 1.99 1.90 1.78 1.63 1.43 1.31 1.21 1.16 1.07 0.93 0.75 0.68 0.57 0.46 0.38 0.28 0.21 0.17 0.15 0.14
2.09 1.95 1.93 1.96 1.90 2.00 2.03 2.03 2.10 2.30 2.42 2.53 2.23 2.02 1.90 1.75 1.63 1.55 1.49 1.76 1.83 1.72 1.85 2.11 2.19 2.13 2.08 1.88 1.68 1.57 1.46 1.36 1.12 0.84 0.74 0.68 0.57 0.49 0.42 0.36 0.30 0.23 0.17
2.04 2.01 1.93 1.78 1.82 1.91 2.00 2.03 2.08 2.22 2.13 2.21 2.18 2.08 1.99 1.85 1.78 1.65 1.57 1.55 1.43 1.60 1.78 1.97 2.13 2.18 2.26 2.17 2.11 2.03 1.83 1.55 1.27 0.95 0.74 0.69 0.62 0.52 0.47 0.45 0.43 0.36 0.28
1.81 1.84 1.68 1.63 1.72 1.60 1.62 1.71 1.66 1.75 1.83 1.98 2.00 1.88 1.83 1.81 1.70 1.67 1.58 1.47 1.46 1.26 1.59 1.92 2.04 1.95 2.12 2.31 2.50 2.55 2.16 1.67 1.32 1.07 0.85 0.72 0.68 0.56 0.45 0.40 0.39 0.41 0.33
1.35 1.36 1.32 1.38 1.39 1.34 1.33 1.24 1.44 1.52 1.64 1.75 1.73 1.64 1.56 1.65 1.62 1.53 1.49 1.30 1.42 1.33 1.32 1.49 1.75 1.72 1.98 2.39 2.74 2.85 2.60 2.07 1.58 1.35 1.18 1.03 0.95 0.77 0.55 0.46 0.41 0.38 0.34
1.21 1.13 1.09 1.12 1.07 1.11 1.19 1.24 1.33 1.32 1.31 1.39 1.35 1.39 1.38 1.22 1.32 1.35 1.24 1.23 1.19 1.00 1.05 1.23 1.50 1.35 1.72 2.13 2.47 2.66 2.77 2.63 2.17 1.75 1.55 1.50 1.44 1.16 0.76 0.59 0.51 0.44 0.36
1.11 1.10 0.97 0.96 0.88 0.90 0.93 0.95 1.03 1.04 1.02 1.10 1.27 1.29 1.12 0.96 0.97 0.96 0.99 1.12 1.03 1.03 1.12 1.25 1.36 1.36 1.31 1.47 1.68 2.06 2.56 2.77 2.61 2.18 1.86 1.66 1.63 1.43 1.00 0.77 0.62 0.56 0.51
0.91 0.85 0.86 0.82 0.77 0.86 0.89 0.88 0.88 0.89 0.88 0.91 1.04 1.18 1.05 0.94 0.82 0.66 0.78 0.78 0.83 1.05 1.12 1.12 1.19 1.37 1.30 1.46 1.21 1.39 2.01 2.46 2.77 2.65 2.29 1.90 1.65 1.42 1.13 0.95 0.76 0.63 0.58
0.79 0.74 0.72 0.74 0.77 0.74 0.81 0.84 0.76 0.81 0.85 0.80 0.81 1.00 1.02 0.96 0.80 0.62 0.59 0.68 0.81 0.94 1.00 1.16 1.13 1.12 1.13 1.38 1.53 1.41 1.49 1.74 2.39 2.86 2.80 2.26 1.69 1.31 1.19 1.16 1.06 0.89 0.73
0.79 0.69 0.64 0.62 0.66 0.66 0.79 0.70 0.70 0.76 0.80 0.71 0.66 0.67 0.76 0.80 0.86 0.78 0.66 0.63 0.75 0.84 0.89 0.94 1.03 1.17 1.28 1.38 1.52 1.46 1.22 1.28 1.76 2.36 2.72 2.57 2.08 1.58 1.28 1.28 1.47 1.43 1.13
0.90 0.77 0.73 0.66 0.65 0.64 0.69 0.69 0.82 0.79 0.76 0.70 0.64 0.65 0.70 0.65 0.64 0.72 0.68 0.62 0.64 0.57 0.63 0.75 0.97 1.11 1.18 1.33 1.58 1.42 1.15 1.03 1.19 1.58 1.99 2.19 2.17 1.86 1.54 1.44 1.73 1.96 1.77
0.98 0.88 0.85 0.81 0.75 0.70 0.67 0.65 0.76 0.81 0.84 0.82 0.74 0.68 0.71 0.68 0.64 0.69 0.60 0.50 0.52 0.42 0.43 0.52 0.68 0.84 0.98 1.19 1.27 1.26 1.22 1.15 1.10 1.18 1.31 1.52 1.75 1.79 1.71 1.73 1.96 2.18 2.24
0.85 0.80 0.79 0.76 0.67 0.68 0.74 0.79 0.79 0.78 0.81 0.84 0.79 0.72 0.70 0.62 0.65 0.66 0.59 0.52 0.55 0.48 0.59 0.59 0.66 0.88 0.97 1.22 1.25 1.24 1.19 1.19 1.02 0.94 0.96 1.03 1.16 1.36 1.54 1.66 1.87 2.07 2.27
0.83 0.85 0.82 0.74 0.71 0.73 0.73 0.84 0.73 0.69 0.74 0.75 0.68 0.82 0.78 0.59 0.66 0.69 0.71 0.81 0.77 0.72 0.75 0.70 0.78 1.05 1.29 1.33 1.39 1.31 1.08 1.05 0.92 0.83 0.76 0.76 0.83 0.94 1.04 1.17 1.33 1.44 1.58
0.93 0.99 0.91 0.80 0.80 0.85 0.86 0.90 0.77 0.74 0.78 0.73 0.74 0.88 0.87 0.75 0.75 0.72 0.79 0.93 1.04 0.92 0.85 0.92 1.00 1.08 1.24 1.31 1.37 1.25 1.08 1.04 0.90 0.77 0.70 0.67 0.68 0.73 0.78 0.81 0.85 0.92 0.99
0.90 0.96 0.92 0.83 0.83 0.84 0.88 0.93 0.83 0.84 0.85 0.83 0.88 0.95 0.96 0.91 0.90 0.86 0.87 0.96 1.13 1.14 1.04 0.97 1.04 1.06 1.10 1.01 1.09 1.03 1.00 1.02 0.88 0.79 0.74 0.70 0.65 0.65 0.66 0.72 0.74 0.73 0.74
0.94 0.89 0.89 0.90 0.86 0.87 0.93 0.97 0.94 0.92 0.87 0.90 0.90 0.92 0.93 1.00 1.06 1.08 1.13 1.14 1.18 1.32 1.27 1.06 1.12 1.25 1.22 1.06 0.97 0.94 0.91 0.88 0.82 0.83 0.78 0.74 0.70 0.65 0.61 0.59 0.62 0.65 0.63
0.96 0.96 0.96 0.90 0.80 0.82 0.96 0.99 0.96 0.95 0.94 0.90 0.95 1.04 1.00 1.02 1.11 1.18 1.31 1.31 1.33 1.52 1.52 1.33 1.32 1.39 1.31 1.19 1.08 0.99 0.87 0.80 0.77 0.84 0.80 0.75 0.69 0.63 0.61 0.58 0.55 0.54 0.54
1.04 1.01 0.97 0.88 0.82 0.81 0.87 0.92 0.98 1.05 1.08 1.09 1.13 1.18 1.17 1.27 1.26 1.29 1.36 1.34 1.41 1.59 1.69 1.59 1.54 1.63 1.63 1.40 1.24 1.07 0.96 0.95 0.83 0.83 0.83 0.78 0.73 0.68 0.63 0.62 0.61 0.57 0.52
1.05 1.08 1.08 1.09 1.06 1.00 0.97 0.99 1.05 1.07 1.10 1.16 1.26 1.28 1.29 1.37 1.44 1.49 1.51 1.60 1.70 1.83 1.94 1.88 1.85 1.94 1.94 1.79 1.57 1.29 1.20 1.13 1.01 0.88 0.90 0.85 0.80 0.74 0.67 0.61 0.57 0.57 0.56
1.26 1.38 1.39 1.34 1.30 1.24 1.12 1.16 1.15 1.11 1.19 1.14 1.21 1.27 1.25 1.29 1.36 1.49 1.52 1.66 1.83 2.01 2.16 2.21 2.22 2.37 2.30 2.11 1.84 1.51 1.42 1.32 1.18 1.02 0.93 0.82 0.76 0.68 0.64 0.62 0.60 0.58 0.56
1.52 1.56 1.50 1.46 1.44 1.27 1.33 1.33 1.26 1.30 1.34 1.30 1.32 1.36 1.31 1.25 1.24 1.29 1.38 1.50 1.64 1.82 2.05 2.26 2.37 2.44 2.47 2.31 2.10 1.83 1.50 1.25 1.13 1.02 0.98 0.90 0.78 0.72 0.64 0.59 0.65 0.61 0.57
1.42 1.47 1.46 1.41 1.33 1.32 1.27 1.16 1.17 1.17 1.25 1.30 1.31 1.32 1.20 1.09 1.13 1.08 1.15 1.21 1.25 1.37 1.50 1.73 1.95 2.03 2.18 2.25 2.12 1.82 1.53 1.30 1.11 1.04 1.03 0.95 0.87 0.82 0.73 0.70 0.76 0.65 0.58
1.60 1.57 1.50 1.43 1.42 1.36 1.22 1.08 1.09 1.04 1.10 1.13 1.16 1.19 1.18 1.08 1.05 1.09 1.09 1.04 0.98 0.99 1.06 1.12 1.27 1.50 1.70 1.93 2.00 1.89 1.79 1.53 1.25 1.04 0.99 0.94 0.84 0.79 0.75 0.72 0.77 0.70 0.63
1.66 1.65 1.64 1.62 1.62 1.60 1.46 1.22 1.12 1.10 1.18 1.18 1.18 1.18 1.19 1.11 1.12 1.02 1.00 0.98 0.93 0.89 0.89 0.95 1.03 1.21 1.44 1.61 1.80 1.81 1.73 1.62 1.38 1.11 0.96 0.92 0.83 0.80 0.77 0.70 0.69 0.69 0.62
1.52 1.52 1.52 1.57 1.58 1.61 1.58 1.24 1.05 0.98 1.07 1.10 1.17 1.18 1.19 1.09 1.11 1.03 1.04 1.07 0.99 0.91 0.89 0.87 0.90 0.98 1.06 1.30 1.54 1.55 1.49 1.47 1.35 1.15 0.93 0.89 0.83 0.83 0.85 0.70 0.58 0.55 0.54